EW4427 Weather Reports


time (UTC)temp
C
wind
direction
speed
KPH
gust
KPH
rain 1hr
cm
rain 24hr
cm
rain mn
cm
humidity
%
barometer
mb
20260504195047 25 199 8.0 19.3 0.00 0.00 0.00 33 997.2
20260504194556 25 215 9.7 22.5 0.00 0.00 0.00 35 997.4
20260504194047 25 249 6.4 22.5 0.00 0.00 0.00 32 997.4
20260504193548 25 215 8.0 25.7 0.00 0.00 0.00 32 997.4
20260504193050 25 248 9.7 25.7 0.00 0.00 0.00 34 997.4
20260504192546 25 199 11.3 25.7 0.00 0.00 0.00 32 997.4
20260504192047 25 184 6.4 19.3 0.00 0.00 0.00 32 997.5
20260504191601 25 271 6.4 17.7 0.00 0.00 0.00 30 997.5
20260504191044 25 262 6.4 22.5 0.00 0.00 0.00 32 997.6
20260504190544 24 204 11.3 22.5 0.00 0.00 0.00 35 997.5
20260504190050 25 211 11.3 22.5 0.00 0.00 0.00 30 997.5
20260504185543 25 209 8.0 24.1 0.00 0.00 0.00 32 997.7
20260504185042 25 252 6.4 24.1 0.00 0.00 0.00 35 997.6
20260504184550 24 259 11.3 24.1 0.00 0.00 0.00 36 997.8
20260504184044 25 224 11.3 24.1 0.00 0.00 0.00 31 997.8
20260504183546 25 232 6.4 20.9 0.00 0.00 0.00 35 997.9
20260504183053 25 264 6.4 16.1 0.00 0.00 0.00 35 998.0
20260504182545 24 192 4.8 16.1 0.00 0.00 0.00 35 998.0
20260504182047 24 217 8.0 24.1 0.00 0.00 0.00 37 998.0
20260504181552 24 208 6.4 24.1 0.00 0.00 0.00 36 998.1
20260504181045 23 231 8.0 17.7 0.00 0.00 0.00 33 998.2
20260504180547 23 208 9.7 29.0 0.00 0.00 0.00 35 998.1
20260504180055 23 211 8.0 29.0 0.00 0.00 0.00 35 998.2
20260504175548 23 204 8.0 20.9 0.00 0.00 0.00 34 998.1
20260504175048 23 217 8.0 29.0 0.00 0.00 0.00 34 998.3
20260504174550 23 245 8.0 29.0 0.00 0.00 0.00 37 998.3
20260504174043 23 214 4.8 22.5 0.00 0.00 0.00 34 998.4
20260504173545 23 263 9.7 24.1 0.00 0.00 0.00 37 998.6
20260504173052 23 184 11.3 24.1 0.00 0.00 0.00 37 998.6
20260504172542 23 191 6.4 20.9 0.00 0.00 0.00 35 998.7
20260504172048 23 188 8.0 20.9 0.00 0.00 0.00 34 998.9
20260504171558 22 198 8.0 22.5 0.00 0.00 0.00 39 998.9
20260504171044 22 212 12.9 25.7 0.00 0.00 0.00 36 999.0
20260504170548 22 203 8.0 25.7 0.00 0.00 0.00 35 998.9
20260504151048 21 217 8.0 17.7 0.00 0.00 0.00 38 1000.5
20260504150547 20 237 8.0 20.9 0.00 0.00 0.00 37 1000.5
20260504150108 20 194 11.3 20.9 0.00 0.00 0.00 42 1000.4
20260504141045 17 231 6.4 16.1 0.00 0.00 0.00 51 1000.9
20260504140545 17 190 8.0 16.1 0.00 0.00 0.00 52 1001.0
20260504130543 13 211 4.8 11.3 0.00 0.00 0.00 65 1001.6
20260504110545 7 209 1.6 6.4 0.00 0.00 0.00 89 1001.7
20260504100540 7 0 0.0 0.0 0.00 0.00 0.00 87 1001.8
20260504081554 10 0 0.0 0.0 0.00 0.00 0.00 76 1002.7
20260504081041 10 0 0.0 0.0 0.00 0.00 0.00 76 1002.8
20260504080543 10 0 0.0 1.6 0.00 0.00 0.00 76 1002.6
20260504080109 10 0 0.0 1.6 0.00 0.00 0.00 77 1002.7
20260504050546 12 0 0.0 0.0 0.00 0.00 0.00 72 1004.0
20260504045544 12 0 0.0 0.0 0.00 0.00 0.00 70 1004.0
20260504045047 12 0 0.0 0.0 0.00 0.00 0.00 69 1004.1
20260504044552 12 0 0.0 0.0 0.00 0.00 0.00 68 1004.2
20260504044048 12 0 0.0 3.2 0.00 0.00 0.00 67 1004.0
20260504043547 13 0 0.0 4.8 0.00 0.00 0.00 68 1004.1
20260504043051 13 0 0.0 4.8 0.00 0.00 0.00 67 1003.9
20260504042546 13 211 1.6 4.8 0.00 0.00 0.00 68 1004.0
20260504042045 13 213 1.6 4.8 0.00 0.00 0.00 68 1004.0
20260504041549 13 0 1.6 3.2 0.00 0.00 0.00 68 1004.0
20260504041046 13 0 0.0 3.2 0.00 0.00 0.00 68 1004.0
20260504040549 12 0 0.0 3.2 0.00 0.00 0.00 68 1004.0
20260504040114 12 213 0.0 3.2 0.00 0.00 0.00 70 1004.3
20260504035545 12 0 0.0 3.2 0.00 0.00 0.00 73 1004.1
20260504035042 12 0 0.0 0.0 0.00 0.00 0.00 78 1004.2
20260504034550 12 0 0.0 0.0 0.00 0.00 0.00 76 1004.2
20260504034042 12 0 0.0 0.0 0.00 0.00 0.00 77 1004.2
20260504033542 12 0 0.0 0.0 0.00 0.00 0.00 74 1004.2
20260504033050 12 0 0.0 0.0 0.00 0.00 0.00 72 1004.3
20260504032541 13 0 0.0 0.0 0.00 0.00 0.00 75 1004.3
20260504032042 13 0 0.0 0.0 0.00 0.00 0.00 72 1004.3
20260504031556 13 0 0.0 3.2 0.00 0.00 0.00 72 1004.4
20260504031041 13 0 0.0 3.2 0.00 0.00 0.00 72 1004.4
20260504030544 13 0 0.0 3.2 0.00 0.00 0.00 71 1004.3
20260504030054 13 0 0.0 4.8 0.00 0.00 0.00 72 1004.3
20260504025544 12 210 1.6 4.8 0.00 0.00 0.00 74 1004.3
20260504025045 12 207 1.6 6.4 0.00 0.00 0.00 78 1004.3
20260504024550 12 207 1.6 6.4 0.00 0.00 0.00 79 1004.3
20260504024042 12 194 1.6 6.4 0.00 0.00 0.00 80 1004.3
20260504023542 12 0 0.0 1.6 0.00 0.00 0.00 80 1004.3
20260504023100 12 0 0.0 0.0 0.00 0.00 0.00 78 1004.3
20260504022546 12 0 0.0 0.0 0.00 0.00 0.00 79 1004.2
20260504022045 12 0 0.0 0.0 0.00 0.00 0.00 77 1004.1
20260504021554 13 0 0.0 0.0 0.00 0.00 0.00 75 1004.2
20260504021041 13 0 0.0 0.0 0.00 0.00 0.00 73 1004.1
20260504020544 13 0 0.0 1.6 0.00 0.00 0.00 74 1004.1
20260504020051 13 0 0.0 1.6 0.00 0.00 0.00 77 1004.2
20260504015544 13 0 0.0 0.0 0.00 0.00 0.00 76 1004.1
20260504015044 14 0 0.0 0.0 0.00 0.00 0.00 75 1004.0
20260504014559 14 0 0.0 0.0 0.00 0.00 0.00 70 1004.2
20260504014042 15 0 0.0 0.0 0.00 0.00 0.00 66 1004.2
20260504013542 15 0 0.0 0.0 0.00 0.00 0.00 64 1004.3
20260504013051 15 0 0.0 0.0 0.00 0.00 0.00 67 1004.1
20260504012542 15 0 0.0 0.0 0.00 0.00 0.00 62 1004.0
20260504012043 16 0 0.0 0.0 0.00 0.00 0.00 64 1004.0
20260504011552 16 0 0.0 0.0 0.00 0.00 0.00 55 1004.1
20260504011041 16 0 0.0 0.0 0.00 0.00 0.00 55 1003.9
20260504010541 16 0 0.0 0.0 0.00 0.00 0.00 51 1004.0
20260504010055 16 0 0.0 1.6 0.00 0.00 0.00 51 1004.0
20260504005544 17 0 0.0 3.2 0.00 0.00 0.00 53 1003.9
20260504005044 17 0 0.0 3.2 0.00 0.00 0.00 52 1003.9
20260504004554 17 0 0.0 3.2 0.00 0.00 0.00 51 1003.9
20260504004047 17 0 0.0 1.6 0.00 0.00 0.00 51 1003.9
20260504003546 17 0 0.0 3.2 0.00 0.00 0.00 50 1003.9
20260504003102 17 0 0.0 3.2 0.00 0.00 0.00 49 1004.0
20260504002546 17 207 0.0 9.7 0.00 0.00 0.00 49 1003.9
20260504002047 18 0 0.0 9.7 0.00 0.00 0.00 49 1003.9
20260504001605 18 228 3.2 9.7 0.00 0.00 0.00 48 1003.9
20260504001047 18 0 0.0 11.3 0.00 0.00 0.00 48 1003.9
20260504000546 18 0 1.6 12.9 0.00 0.00 0.00 49 1004.0
20260504000130 18 0 4.8 12.9 0.00 0.00 0.00 48 1003.9
20260503235547 18 217 0.0 8.0 0.00 0.00 0.00 50 1003.8
20260503235045 18 0 1.6 11.3 0.00 0.00 0.00 50 1003.9
20260503234556 18 213 3.2 17.7 0.00 0.00 0.00 49 1004.0
20260503234046 18 0 3.2 17.7 0.00 0.00 0.00 48 1004.0
20260503233546 18 238 1.6 11.3 0.00 0.00 0.00 49 1003.9
20260503233055 18 217 3.2 11.3 0.00 0.00 0.00 49 1004.0
20260503232545 18 202 0.0 11.3 0.00 0.00 0.00 48 1004.0
20260503232045 18 223 1.6 9.7 0.00 0.00 0.00 48 1004.1
20260503231551 18 226 3.2 12.9 0.00 0.00 0.00 49 1004.2
20260503231043 18 0 3.2 12.9 0.00 0.00 0.00 49 1004.2
20260503230544 18 211 3.2 16.1 0.00 0.00 0.00 47 1004.2
20260503225545 18 185 4.8 11.3 0.00 0.00 0.00 47 1004.3
20260503225047 18 218 1.6 11.3 0.00 0.00 0.00 48 1004.3
20260503224548 18 226 4.8 14.5 0.00 0.00 0.00 47 1004.2
20260503224048 18 0 3.2 14.5 0.00 0.00 0.00 48 1004.2
20260503223547 18 209 3.2 14.5 0.00 0.00 0.00 48 1004.3
20260503223057 18 250 4.8 14.5 0.00 0.00 0.00 48 1004.5
20260503222546 18 210 4.8 12.9 0.00 0.00 0.00 48 1004.5
20260503222045 18 0 1.6 16.1 0.00 0.00 0.00 48 1004.6
20260503221557 18 207 1.6 17.7 0.00 0.00 0.00 49 1004.6
20260503221047 18 207 8.0 25.7 0.00 0.00 0.00 50 1004.5
20260503220547 18 238 6.4 25.7 0.00 0.00 0.00 48 1004.5
20260503220057 18 240 8.0 19.3 0.00 0.00 0.00 49 1004.5
20260503215545 18 250 3.2 19.3 0.00 0.00 0.00 49 1004.5
20260503215047 18 188 9.7 16.1 0.00 0.00 0.00 49 1004.5
20260503214549 18 215 4.8 19.3 0.00 0.00 0.00 50 1004.5
20260503214044 18 235 9.7 19.3 0.00 0.00 0.00 48 1004.7
20260503213547 18 228 6.4 19.3 0.00 0.00 0.00 48 1004.8
20260503213056 18 260 3.2 19.3 0.00 0.00 0.00 48 1005.0
20260503212544 18 225 8.0 20.9 0.00 0.00 0.00 48 1004.7
20260503212044 18 207 8.0 20.9 0.00 0.00 0.00 49 1004.9
20260503211554 18 220 1.6 20.9 0.00 0.00 0.00 49 1005.0
20260503211044 18 205 4.8 30.6 0.00 0.00 0.00 51 1005.1
20260503210546 17 196 8.0 32.2 0.00 0.00 0.00 49 1005.0
20260503210052 18 234 9.7 32.2 0.00 0.00 0.00 49 1005.2
20260503205544 18 209 11.3 25.7 0.00 0.00 0.00 48 1005.2
20260503205046 18 229 11.3 25.7 0.00 0.00 0.00 46 1005.3
20260503204554 19 249 8.0 20.9 0.00 0.00 0.00 46 1005.3
20260503204045 18 234 6.4 32.2 0.00 0.00 0.00 49 1005.3
20260503203547 18 202 8.0 33.8 0.00 0.00 0.00 51 1005.4
20260503203059 18 214 11.3 33.8 0.00 0.00 0.00 52 1005.6
20260503202545 18 208 9.7 22.5 0.00 0.00 0.00 51 1005.7
20260503202047 17 223 11.3 25.7 0.00 0.00 0.00 53 1006.0
20260503201555 17 192 12.9 32.2 0.00 0.00 0.00 54 1006.1
20260503201046 17 259 11.3 35.4 0.00 0.00 0.00 53 1006.3
20260503200546 17 192 16.1 35.4 0.00 0.00 0.00 55 1006.3
20260503200100 17 198 12.9 29.0 0.00 0.00 0.00 54 1006.5
20260503195544 17 198 12.9 27.4 0.00 0.00 0.00 53 1006.6